1507125600.45,6926,13.75,73842.0,1.23,-19.47,-21.53,0,*48
1507125601.65,6927,13.75,73840.3,1.27,-19.95,-22.07,0,*40
1507125602.88,6928,13.75,73840.5,1.27,-19.31,-21.47,0,*46
1507125604.16,6929,13.75,73840.3,1.25,-19.57,-21.83,0,*4D
1507125605.41,6930,13.75,73840.3,1.27,-19.61,-21.83,0,*42
1507125606.61,6931,13.75,73838.0,1.27,-19.91,-22.11,0,*44
1507125607.83,6932,13.75,73838.8,1.27,-19.75,-21.97,0,*40
1507125609.08,6933,13.75,73840.3,1.23,-19.65,-21.97,0,*44
1507125610.33,6934,13.69,73838.0,1.27,-19.27,-21.33,0,*4F
1507125611.58,6935,13.75,73842.0,1.25,-19.71,-21.97,0,*41
1507125612.84,6936,13.75,73838.0,1.25,-19.81,-21.97,0,*4D
1507125614.12,6937,13.75,73836.8,1.25,-19.65,-21.83,0,*43
1507125615.39,6938,13.75,73838.0,1.25,-19.57,-21.67,0,*47
1507125616.67,6939,13.69,73836.3,1.25,-19.57,-21.67,0,*46
1507125617.92,6940,13.75,73838.3,1.25,-19.51,-21.53,0,*49
1507125619.15,6941,13.75,73838.8,1.27,-19.31,-21.43,0,*4D
1507125620.37,6942,13.75,73836.8,1.27,-19.61,-21.63,0,*49
1507125621.6,6943,13.69,73834.8,1.27,-19.61,-21.63,0,*48
1507125622.8,6944,13.75,73838.3,1.27,-19.51,-21.63,0,*4C
1507125624.03,6945,13.69,73834.8,1.27,-19.51,-21.67,0,*49
1507125625.25,6946,13.75,73836.0,1.29,-19.47,-21.43,0,*45
1507125626.5,6947,13.69,73832.3,1.29,-19.31,-21.13,0,*40
1507125627.75,6948,13.75,73840.3,1.29,-19.51,-21.53,0,*4D
1507125628.97,6949,13.75,73836.3,1.31,-19.61,-21.73,0,*44
1507125630.16,6950,13.75,73838.3,1.27,-20.05,-21.93,0,*4D
1507125631.37,6951,13.75,73838.5,1.27,-20.05,-21.97,0,*48
1507125632.59,6952,13.69,73834.0,1.27,-20.05,-21.97,0,*4B
1507125633.82,6953,13.75,73834.3,1.27,-19.61,-21.63,0,*49
1507125635.06,6954,13.75,73838.0,1.27,-19.41,-21.33,0,*49
1507125636.28,6955,13.75,73838.3,1.29,-19.47,-21.47,0,*43
1507125637.53,6956,13.69,73834.8,1.33,-19.57,-21.63,0,*4C
1507125638.81,6957,13.75,73836.5,1.29,-19.61,-21.67,0,*47
1507125640.06,6958,13.69,73836.0,1.31,-19.57,-21.57,0,*47
1507125641.31,6959,13.75,73834.3,1.33,-19.57,-21.63,0,*43
1507125642.53,6960,13.75,73836.5,1.31,-19.61,-21.73,0,*4F
1507125643.78,6961,13.69,73832.0,1.31,-19.57,-21.57,0,*4D
1507125645.02,6962,13.75,73836.8,1.33,-19.41,-21.43,0,*4E
1507125646.25,6963,13.69,73834.8,1.33,-19.37,-21.39,0,*43
1507125647.48,6964,13.69,73838.5,1.33,-19.37,-21.39,0,*44
1507125648.67,6965,13.69,73838.5,1.35,-19.71,-21.73,0,*4F
1507125649.92,6966,13.75,73836.0,1.35,-19.85,-21.87,0,*4C
1507125651.14,6967,13.75,73836.3,1.35,-19.95,-21.87,0,*4C
1507125652.4,6968,13.69,73836.3,1.33,-20.15,-22.21,0,*48
1507125653.64,6969,13.75,73838.3,1.33,-20.29,-22.17,0,*43
1507125654.88,6970,13.75,73836.5,1.31,-20.43,-22.47,0,*40
1507125656.08,6971,13.75,73838.5,1.31,-20.43,-22.53,0,*44
1507125657.3,6972,13.75,73836.0,1.33,-20.63,-22.67,0,*40
1507125658.5,6973,13.75,73838.3,1.31,-20.63,-22.67,0,*43
1507125659.75,6974,13.75,73836.3,1.31,-20.19,-22.17,0,*4E
1507125660.96,6975,13.75,73834.0,1.31,-20.35,-22.37,0,*43
1507125662.17,6976,13.69,73834.0,1.31,-20.43,-22.53,0,*43
1507125663.37,6977,13.75,73836.0,1.31,-20.63,-22.57,0,*44
1507125664.59,6978,13.69,73834.5,1.31,-20.49,-22.53,0,*47
1507125665.84,6979,13.75,73836.3,1.29,-20.83,-22.87,0,*40
1507125667.04,6980,13.69,73834.0,1.27,-20.89,-22.87,0,*42
1507125668.26,6981,13.75,73836.8,1.27,-21.03,-22.93,0,*45
1507125669.51,6982,13.75,73838.8,1.27,-20.83,-22.73,0,*41
1507125670.7,6983,13.75,73840.8,1.27,-20.73,-22.63,0,*4E
1507125671.92,6984,13.69,73834.0,1.27,-20.39,-22.21,0,*41
1507125673.12,6985,13.75,73842.3,1.27,-20.25,-22.11,0,*4E
1507125674.34,6986,13.69,73838.8,1.29,-20.05,-21.93,0,*48
1507125675.55,6987,13.75,73842.5,1.27,-19.81,-21.63,0,*4E
1507125676.74,6988,13.75,73840.8,1.27,-19.75,-21.63,0,*4A
1507125678.02,6989,13.75,73842.3,1.29,-19.61,-21.33,0,*45
1507125679.26,6990,13.75,73838.8,1.29,-19.65,-21.63,0,*4C
1507125680.5,6991,13.75,73844.5,1.29,-20.53,-22.41,0,*41
1507125681.74,6992,13.75,73842.8,1.29,-20.53,-22.41,0,*42
1507125683.01,6993,13.75,73842.5,1.29,-20.83,-22.73,0,*4F
1507125684.26,6994,13.75,73840.3,1.29,-20.89,-22.77,0,*46
1507125685.48,6995,13.75,73838.3,1.27,-21.47,-23.53,0,*4D
1507125686.73,6996,13.75,73840.0,1.27,-21.83,-23.85,0,*4D
1507125687.95,6997,13.75,73838.0,1.23,-22.41,-24.41,0,*4A
1507125689.16,6998,13.75,73836.5,1.23,-21.73,-23.75,0,*47
1507125690.39,6999,13.75,73838.8,1.23,-21.67,-23.75,0,*43
1507125691.66,7000,13.75,73838.5,1.21,-22.17,-24.11,0,*48
1507125692.88,7001,13.75,73838.3,1.17,-22.53,-24.51,0,*48
1507125694.15,7002,13.75,73836.5,1.17,-21.97,-23.99,0,*43
1507125695.36,7003,13.75,73838.0,1.15,-22.57,-24.51,0,*4C
1507125696.59,7004,13.75,73836.8,1.13,-22.83,-24.93,0,*4A
1507125697.86,7005,13.75,73838.0,1.13,-23.23,-25.03,0,*48
1507125699.09,7006,13.75,73836.3,1.09,-23.13,-25.09,0,*49
1507125700.32,7007,13.75,73836.5,1.09,-22.83,-24.77,0,*48
1507125701.54,7008,13.75,73836.5,1.05,-22.87,-24.83,0,*44
1507125702.75,7009,13.75,73832.3,1.05,-22.83,-24.67,0,*4B
1507125704.0,7010,13.75,73834.0,1.03,-22.73,-24.57,0,*49
1507125705.25,7011,13.75,73832.3,1.01,-21.97,-23.85,0,*4B
1507125706.52,7012,13.75,73832.0,1.03,-21.83,-23.69,0,*4D
1507125707.74,7013,13.75,73834.5,1.01,-21.77,-23.53,0,*4C
1507125708.96,7014,13.75,73832.8,1.03,-21.39,-23.13,0,*47
1507125710.24,7015,13.75,73834.5,0.99,-21.53,-23.19,0,*72
1507125711.46,7016,13.75,73830.8,0.99,-21.43,-23.13,0,*7A
1507125712.74,7017,13.75,73832.3,0.99,-21.67,-23.29,0,*74
1507125713.96,7018,13.69,73826.5,0.99,-21.09,-22.83,0,*72
1507125715.18,7019,13.75,73826.8,0.99,-21.13,-22.83,0,*78
1507125716.46,7020,13.75,73826.3,0.99,-21.23,-23.03,0,*78
1507125717.73,7021,13.69,73820.5,0.99,-22.17,-23.95,0,*72
1507125718.95,7022,13.75,73826.8,0.97,-22.53,-24.15,0,*70
1507125720.17,7023,13.75,73828.0,0.93,-21.93,-23.65,0,*7A
1507125721.41,7024,13.75,73822.3,0.93,-22.21,-23.99,0,*74
1507125722.69,7025,13.75,73818.5,0.91,-21.57,-23.19,0,*7D
1507125723.94,7026,13.75,73814.3,0.93,-21.57,-23.23,0,*75
1507125725.19,7027,13.75,73814.5,0.91,-21.63,-23.33,0,*70
1507125726.44,7028,13.75,73816.0,0.93,-21.87,-23.49,0,*7A
1507125727.66,7029,13.75,73808.3,0.91,-22.41,-24.31,0,*78
1507125728.9,7030,13.75,73808.0,0.89,-23.03,-24.83,0,*77
1507125730.17,7031,13.75,73808.3,0.87,-23.19,-24.87,0,*77
1507125731.4,7032,13.75,73812.0,0.85,-22.53,-24.25,0,*71
1507125732.59,7033,13.75,73810.8,0.85,-22.07,-23.75,0,*73
1507125733.82,7034,13.75,73812.0,0.83,-22.53,-24.31,0,*74
1507125735.07,7035,13.75,73814.0,0.83,-23.03,-24.61,0,*74
1507125736.29,7036,13.75,73814.8,0.81,-22.57,-24.11,0,*72
1507125737.51,7037,13.69,73816.3,0.81,-22.57,-24.15,0,*77
1507125738.71,7038,13.75,73818.3,0.81,-22.87,-24.47,0,*72
1507125739.92,7039,13.75,73812.8,0.79,-22.87,-24.35,0,*71
1507125741.17,7040,13.75,73814.5,0.79,-22.93,-24.41,0,*79
1507125742.39,7041,13.75,73810.5,0.77,-23.09,-24.67,0,*70
1507125743.57,7042,13.75,73810.0,0.73,-23.43,-24.93,0,*72
1507125744.79,7043,13.75,73806.3,0.77,-23.03,-24.51,0,*7D
1507125746.0,7044,13.75,73810.5,0.69,-23.19,-24.77,0,*7A
1507125747.26,7045,13.75,73810.8,0.67,-23.33,-24.67,0,*7C
1507125748.47,7046,13.75,73808.5,0.69,-22.21,-23.39,0,*7F
1507125749.71,7047,13.75,73806.8,0.67,-21.27,-22.63,0,*7B
1507125750.89,7048,13.75,73798.8,0.69,-21.13,-22.27,0,*7D
1507125752.1,7049,13.75,73796.0,0.67,-21.17,-22.41,0,*76
1507125753.29,7050,13.75,73802.5,0.69,-21.77,-23.09,0,*7B
1507125754.55,7051,13.75,73806.3,0.67,-22.21,-23.53,0,*7B
1507125755.75,7052,13.75,73802.3,0.67,-22.41,-23.59,0,*74
1507125757.01,7053,13.75,73800.5,0.67,-22.73,-23.99,0,*78
1507125758.24,7054,13.75,73804.3,0.67,-23.39,-24.67,0,*76
1507125759.44,7055,13.75,73804.0,0.65,-23.19,-24.35,0,*70
1507125760.65,7056,13.75,73802.8,0.65,-23.23,-24.31,0,*7E
1507125761.91,7057,13.75,73796.8,0.63,-23.23,-24.21,0,*78
1507125763.11,7058,13.75,73802.8,0.61,-22.93,-24.11,0,*7C
1507125764.32,7059,13.75,73800.5,0.61,-22.67,-23.65,0,*72
1507125765.55,7060,13.75,73810.8,0.59,-22.37,-23.33,0,*75
1507125766.77,7061,13.75,73808.0,0.61,-22.77,-23.75,0,*79
1507125767.96,7062,13.75,73810.8,0.61,-22.53,-23.43,0,*79
1507125769.17,7063,13.75,73818.0,0.59,-21.73,-22.67,0,*75
1507125770.39,7064,13.75,73822.3,0.61,-22.17,-22.97,0,*77
1507125771.59,7065,13.75,73814.0,0.59,-22.07,-22.97,0,*7C
1507125772.83,7066,13.75,73812.8,0.61,-21.87,-22.77,0,*71
1507125774.05,7067,13.75,73812.0,0.61,-21.87,-22.67,0,*71
1507125775.23,7068,13.75,73810.5,0.61,-21.43,-22.37,0,*73
1507125776.44,7069,13.75,73808.5,0.61,-21.67,-22.53,0,*76
1507125777.68,7070,13.75,73810.3,0.61,-21.33,-22.17,0,*7F
1507125778.89,7071,13.75,73808.5,0.61,-21.53,-22.37,0,*7A
1507125780.11,7072,13.75,73806.8,0.61,-21.87,-22.67,0,*75
1507125781.37,7073,13.75,73804.8,0.63,-21.97,-22.77,0,*76
1507125782.57,7074,13.69,73802.8,0.63,-22.11,-22.83,0,*77
1507125783.81,7075,13.75,73794.5,0.63,-22.47,-23.13,0,*7D
1507125785.02,7076,13.75,73792.3,0.61,-22.31,-22.97,0,*70
1507125786.27,7077,13.75,73798.5,0.61,-22.47,-23.23,0,*7E
1507125787.47,7078,13.75,73800.5,0.61,-22.63,-23.29,0,*7D
1507125788.68,7079,13.75,73802.8,0.59,-22.83,-23.43,0,*75
1507125789.89,7080,13.75,73806.8,0.61,-22.83,-23.65,0,*7C
1507125791.14,7081,13.75,73796.8,0.59,-23.29,-23.95,0,*78
1507125792.35,7082,13.75,73790.0,0.57,-23.33,-23.75,0,*70
1507125793.55,7083,13.75,73788.5,0.57,-22.73,-23.39,0,*7C
1507125794.73,7084,13.75,73798.0,0.57,-22.37,-22.93,0,*7A
1507125795.94,7085,13.75,73784.5,0.57,-23.23,-23.75,0,*76
1507125797.17,7086,13.75,73786.3,0.57,-23.49,-24.15,0,*78
1507125798.4,7087,13.75,73794.8,0.55,-23.39,-23.85,0,*72
1507125799.61,7088,13.75,73794.3,0.53,-23.09,-23.53,0,*73
1507125800.81,7089,13.75,73794.8,0.51,-23.39,-23.79,0,*7B
1507125802.01,7090,13.75,73802.8,0.53,-23.13,-23.53,0,*71
1507125803.25,7091,13.75,73806.3,0.51,-23.29,-23.59,0,*71
1507125804.48,7092,13.75,73810.3,0.51,-22.83,-23.29,0,*74
1507125805.72,7093,13.75,73814.3,0.51,-22.31,-22.67,0,*77
1507125806.93,7094,13.75,73810.3,0.51,-22.41,-22.63,0,*73
1507125808.19,7095,13.75,73810.8,0.51,-21.57,-21.83,0,*7B
1507125809.43,7096,13.75,73818.0,0.53,-21.87,-22.17,0,*79
1507125810.64,7097,13.75,73820.3,0.55,-22.27,-22.63,0,*74
1507125811.9,7098,13.75,73814.8,0.55,-22.73,-23.03,0,*7D
1507125813.11,7099,13.75,73812.8,0.55,-22.11,-22.37,0,*7E
1507125814.32,7100,13.75,73814.0,0.53,-21.87,-22.03,0,*72
1507125815.56,7101,13.75,73812.0,0.53,-22.17,-22.31,0,*78
1507125816.74,7102,13.75,73800.5,0.53,-22.67,-23.09,0,*76
1507125817.93,7103,13.75,73802.5,0.53,-22.83,-23.09,0,*7D
1507125819.14,7104,13.69,73802.5,0.53,-22.97,-23.23,0,*77
1507125820.38,7105,13.75,73814.8,0.51,-22.67,-22.77,0,*7B
1507125821.56,7106,13.75,73808.5,0.53,-22.67,-22.67,0,*7B
1507125822.79,7107,13.75,73814.5,0.51,-22.31,-22.27,0,*7F
1507125824.03,7108,13.75,73816.3,0.53,-21.57,-21.67,0,*76
1507125825.29,7109,13.75,73816.5,0.55,-21.53,-21.53,0,*72
1507125826.5,7110,13.75,73814.5,0.55,-22.27,-22.11,0,*7F
1507125827.76,7111,13.75,73816.8,0.55,-21.67,-21.53,0,*7C
1507125829.0,7112,13.75,73820.0,0.55,-21.47,-21.33,0,*7B
1507125830.21,7113,13.75,73818.0,0.57,-21.53,-21.63,0,*78
1507125831.42,7114,13.75,73814.5,0.57,-21.83,-21.77,0,*77
1507125832.62,7115,13.75,73810.5,0.55,-22.27,-22.27,0,*7F
1507125833.85,7116,13.75,73802.3,0.57,-21.97,-21.97,0,*7E
1507125835.09,7117,13.75,73812.8,0.57,-21.67,-21.53,0,*78
1507125836.27,7118,13.75,73816.3,0.57,-21.93,-21.77,0,*7A
1507125837.51,7119,13.75,73822.5,0.57,-21.83,-21.67,0,*7B
1507125838.74,7120,13.75,73814.5,0.55,-21.77,-21.53,0,*7F
1507125839.95,7121,13.75,73808.5,0.57,-21.17,-20.99,0,*7D
1507125841.19,7122,13.75,73808.3,0.59,-21.23,-20.93,0,*7D
1507125842.4,7123,13.75,73812.0,0.61,-21.09,-20.83,0,*7E
1507125843.63,7124,13.75,73806.5,0.61,-21.03,-20.79,0,*76
1507125844.87,7125,13.75,73810.3,0.59,-21.09,-20.83,0,*73
1507125846.08,7126,13.75,73798.3,0.61,-21.43,-21.23,0,*7E
1507125847.29,7127,13.75,73800.8,0.61,-21.57,-21.43,0,*7C
1507125848.49,7128,13.75,73808.3,0.63,-21.73,-21.43,0,*77
1507125849.67,7129,13.75,73808.3,0.65,-21.73,-21.43,0,*70
1507125850.94,7130,13.75,73800.8,0.63,-22.17,-21.83,0,*73
1507125852.17,7131,13.75,73806.5,0.63,-22.17,-21.73,0,*7D
1507125853.36,7132,13.75,73792.8,0.61,-21.73,-21.43,0,*7E
1507125854.59,7133,13.75,73794.8,0.61,-21.57,-21.33,0,*7E
1507125855.8,7134,13.75,73802.3,0.65,-21.87,-21.63,0,*75
1507125857.03,7135,13.75,73794.0,0.63,-22.17,-21.73,0,*79
1507125858.25,7136,13.75,73788.8,0.63,-22.53,-22.11,0,*7D
1507125859.45,7137,13.75,73784.5,0.63,-22.67,-22.27,0,*7E
1507125860.72,7138,13.75,73802.3,0.63,-22.31,-21.87,0,*7B
1507125861.9,7139,13.75,73810.3,0.61,-22.27,-21.73,0,*74
1507125863.13,7140,13.75,73810.8,0.59,-22.21,-21.77,0,*73
1507125864.34,7141,13.75,73804.8,0.63,-22.63,-22.27,0,*7B
1507125865.52,7142,13.75,73788.3,0.61,-22.63,-22.27,0,*7A
1507125866.78,7143,13.75,73794.0,0.59,-22.73,-22.31,0,*76
1507125868.02,7144,13.75,73806.0,0.59,-22.21,-21.77,0,*77
1507125869.24,7145,13.75,73800.8,0.59,-22.07,-21.57,0,*70
1507125870.45,7146,13.75,73794.8,0.59,-21.77,-21.39,0,*7F
1507125871.65,7147,13.75,73786.0,0.59,-22.07,-21.73,0,*74
1507125872.88,7148,13.75,73792.8,0.59,-22.21,-21.73,0,*7F
1507125874.14,7149,13.75,73770.8,0.59,-21.87,-21.27,0,*70
1507125875.36,7150,13.75,73784.3,0.61,-21.73,-21.23,0,*7C
1507125876.57,7151,13.75,73790.0,0.59,-21.43,-20.93,0,*7F
1507125877.78,7152,13.75,73790.8,0.59,-21.39,-20.93,0,*71
1507125878.97,7153,13.75,73804.5,0.61,-21.17,-20.59,0,*71
1507125880.18,7154,13.75,73796.0,0.61,-21.09,-20.35,0,*73
1507125881.41,7155,13.75,73802.0,0.61,-21.23,-20.79,0,*72
1507125882.63,7156,13.75,73802.5,0.61,-21.23,-20.73,0,*7B
1507125883.86,7157,13.75,73802.0,0.65,-20.83,-20.19,0,*79
1507125885.06,7158,13.75,73796.3,0.65,-20.73,-20.15,0,*75
1507125886.3,7159,13.75,73784.8,0.65,-20.83,-20.19,0,*77
1507125887.56,7160,13.75,73790.3,0.67,-20.83,-20.19,0,*7F
1507125888.78,7161,13.75,73794.5,0.67,-21.13,-20.59,0,*72
1507125889.99,7162,13.75,73796.8,0.69,-21.39,-20.83,0,*70
1507125891.23,7163,13.75,73794.8,0.67,-21.77,-21.27,0,*7A
1507125892.45,7164,13.75,73796.8,0.69,-21.93,-21.23,0,*7D
1507125893.69,7165,13.75,73792.3,0.67,-21.93,-21.33,0,*73
1507125894.95,7166,13.75,73796.5,0.67,-21.97,-21.33,0,*74
1507125896.15,7167,13.75,73788.0,0.73,-21.83,-21.09,0,*7C
1507125897.41,7168,13.75,73782.0,0.67,-21.97,-21.33,0,*7A
1507125898.59,7169,13.75,73804.5,0.69,-22.07,-21.39,0,*75
1507125899.83,7170,13.75,73812.3,0.67,-21.93,-21.27,0,*72
1507125901.05,7171,13.75,73798.8,0.67,-21.47,-20.89,0,*7F
1507125902.3,7172,13.75,73776.8,0.67,-21.53,-20.89,0,*79
1507125903.57,7173,13.75,73780.8,0.67,-21.53,-20.83,0,*72
1507125904.78,7174,13.75,73796.0,0.69,-21.33,-20.69,0,*79
1507125905.99,7175,13.75,73792.0,0.73,-21.27,-20.73,0,*7D
1507125907.18,7176,13.75,73796.5,0.69,-21.77,-21.13,0,*77
1507125908.42,7177,13.75,73790.5,0.73,-21.97,-21.23,0,*70
1507125909.62,7178,13.75,73786.3,0.69,-22.03,-21.33,0,*7B
1507125910.86,7179,13.69,73786.5,0.69,-21.87,-21.27,0,*70
1507125912.1,7180,13.75,73786.3,0.73,-22.31,-21.67,0,*77
1507125913.34,7181,13.75,73786.8,0.67,-22.47,-21.77,0,*73
1507125914.55,7182,13.69,73792.5,0.69,-22.27,-21.53,0,*7E
1507125915.73,7183,13.75,73798.3,0.69,-22.41,-21.73,0,*7D
1507125916.94,7184,13.75,73794.3,0.67,-22.41,-21.77,0,*70
1507125918.18,7185,13.69,73788.0,0.67,-22.47,-21.77,0,*77
1507125919.39,7186,13.75,73790.3,0.65,-22.31,-21.77,0,*77
1507125920.57,7187,13.75,73788.8,0.65,-22.41,-21.77,0,*71
1507125921.8,7188,13.75,73788.8,0.65,-22.31,-21.67,0,*78
1507125923.05,7189,13.75,73794.0,0.67,-22.93,-22.31,0,*73
1507125924.28,7190,13.75,73786.8,0.65,-22.31,-21.83,0,*7B
1507125925.51,7191,13.75,73784.8,0.65,-22.73,-21.97,0,*79
1507125926.75,7192,13.75,73788.0,0.63,-22.57,-21.83,0,*7F
1507125927.95,7193,13.75,73796.0,0.63,-22.67,-22.11,0,*75
1507125929.22,7194,13.75,73792.3,0.63,-22.47,-21.83,0,*78
1507125930.42,7195,13.75,73794.3,0.63,-22.37,-21.73,0,*71
1507125931.66,7196,13.75,73796.0,0.63,-22.27,-21.53,0,*71
1507125932.86,7197,13.75,73792.8,0.63,-22.11,-21.43,0,*74
1507125934.12,7198,13.75,73800.0,0.63,-22.17,-21.53,0,*7C
1507125935.33,7199,13.75,73800.3,0.63,-22.63,-22.03,0,*78
1507125936.57,7200,13.75,73808.3,0.63,-22.77,-22.11,0,*7D
1507125937.77,7201,13.75,73808.0,0.63,-22.63,-22.03,0,*7A
1507125939.01,7202,13.75,73806.8,0.63,-22.77,-22.11,0,*7F
1507125940.25,7203,13.75,73800.3,0.59,-22.87,-22.31,0,*7A
1507125941.48,7204,13.75,73796.5,0.59,-23.19,-22.57,0,*7B
1507125942.72,7205,13.75,73794.5,0.59,-23.19,-22.53,0,*7E
1507125943.9,7206,13.75,73794.0,0.57,-23.09,-22.27,0,*71
1507125945.14,7207,13.75,73796.5,0.55,-22.57,-21.97,0,*70
1507125946.37,7208,13.75,73786.0,0.59,-22.21,-22.03,0,*7C
1507125947.58,7209,13.75,73780.5,0.57,-23.19,-22.57,0,*78
1507125948.79,7210,13.75,73792.8,0.55,-22.87,-22.37,0,*72
1507125949.99,7211,13.75,73794.5,0.55,-22.93,-22.41,0,*77
1507125951.21,7212,13.75,73788.0,0.53,-22.53,-21.87,0,*77
1507125952.39,7213,13.75,73778.3,0.53,-22.63,-22.11,0,*79
1507125953.57,7214,13.75,73786.8,0.53,-23.09,-22.41,0,*76
1507125954.75,7215,13.75,73798.5,0.53,-22.63,-22.03,0,*7C
1507125956.01,7216,13.75,73800.5,0.51,-22.31,-21.83,0,*71
1507125957.27,7217,13.75,73784.8,0.55,-22.47,-21.83,0,*75
1507125958.48,7218,13.75,73776.0,0.51,-22.83,-22.27,0,*7B
1507125959.72,7219,13.75,73776.8,0.51,-22.53,-21.97,0,*7F
1507125960.99,7220,13.75,73784.5,0.51,-22.17,-21.57,0,*79
1507125962.25,7221,13.75,73784.8,0.51,-22.31,-21.83,0,*75
1507125963.46,7222,13.75,73776.8,0.51,-22.27,-21.73,0,*7E
1507125964.69,7223,13.75,73784.3,0.51,-22.41,-21.87,0,*74
1507125965.96,7224,13.75,73788.0,0.47,-22.21,-21.87,0,*72
1507125967.23,7225,13.75,73792.0,0.51,-22.31,-21.67,0,*7B
1507125968.46,7226,13.75,73794.5,0.51,-21.97,-21.47,0,*75
1507125969.69,7227,13.75,73796.3,0.51,-22.03,-21.57,0,*7B
1507125970.93,7228,13.75,73796.5,0.47,-22.17,-21.73,0,*70
1507125972.2,7229,13.75,73798.3,0.47,-22.31,-21.87,0,*7E
1507125973.47,7230,13.75,73788.5,0.47,-22.17,-21.87,0,*72
1507125974.74,7231,13.75,73794.0,0.47,-22.17,-21.87,0,*73
1507125975.97,7232,13.75,73794.5,0.51,-22.27,-21.83,0,*70
1507125977.19,7233,13.75,73794.8,0.45,-22.17,-21.73,0,*78
1507125978.42,7234,13.75,73794.8,0.51,-22.41,-21.97,0,*73
1507125979.66,7235,13.75,73796.3,0.51,-22.11,-21.67,0,*78
1507125980.87,7236,13.75,73796.8,0.47,-22.07,-21.77,0,*7A
1507125982.1,7237,13.75,73798.8,0.51,-21.39,-21.03,0,*71
1507125983.31,7238,13.75,73806.0,0.47,-21.43,-21.09,0,*7E
1507125984.56,7239,13.75,73804.5,0.51,-21.23,-20.89,0,*77
1507125985.77,7240,13.75,73804.0,0.53,-21.03,-20.73,0,*7C
1507125986.96,7241,13.75,73802.0,0.53,-21.09,-20.89,0,*72
1507125988.13,7242,13.75,73804.3,0.53,-21.39,-21.09,0,*7B
1507125989.33,7243,13.75,73804.8,0.53,-21.17,-20.89,0,*7F
1507125990.57,7244,13.75,73806.0,0.55,-20.83,-20.59,0,*7F
1507125991.78,7245,13.75,73814.8,0.57,-21.03,-20.73,0,*7D
1507125993.02,7246,13.75,73814.0,0.55,-21.47,-21.27,0,*7C
1507125994.19,7247,13.75,73814.5,0.57,-21.43,-21.13,0,*7C
1507125995.41,7248,13.75,73812.3,0.57,-21.53,-21.47,0,*73
1507125996.64,7249,13.75,73814.8,0.57,-21.83,-21.67,0,*7D
1507125997.85,7250,13.75,73814.5,0.57,-22.03,-21.87,0,*70
1507125999.11,7251,13.75,73808.0,0.55,-21.83,-21.83,0,*7C
1507126000.32,7252,13.75,73804.0,0.57,-21.63,-21.53,0,*7E
1507126001.55,7253,13.75,73800.0,0.55,-21.83,-21.77,0,*75
1507126002.81,7254,13.75,73798.0,0.55,-21.97,-21.83,0,*7C
1507126004.03,7255,13.75,73800.8,0.55,-22.07,-21.97,0,*72
1507126005.24,7256,13.75,73812.3,0.57,-21.47,-21.53,0,*7C
1507126006.5,7257,13.75,73816.0,0.55,-21.03,-21.03,0,*7A
1507126007.73,7258,13.75,73814.5,0.55,-21.27,-21.43,0,*77
1507126009.0,7259,13.75,73816.0,0.55,-21.53,-21.67,0,*73
1507126010.2,7260,13.75,73818.0,0.55,-21.43,-21.43,0,*7E
1507126011.44,7261,13.75,73816.3,0.57,-21.27,-21.33,0,*78
1507126012.67,7262,13.75,73816.5,0.57,-20.83,-20.83,0,*7E
1507126013.93,7263,13.75,73816.8,0.59,-20.83,-20.83,0,*71
1507126015.17,7264,13.75,73814.8,0.59,-20.63,-20.53,0,*75
1507126016.4,7265,13.75,73816.5,0.59,-20.69,-20.79,0,*76
1507126017.66,7266,13.75,73816.8,0.59,-20.99,-21.03,0,*76
1507126018.9,7267,13.75,73814.3,0.59,-21.27,-21.39,0,*7A
1507126020.07,7268,13.75,73822.8,0.61,-21.09,-21.09,0,*71
1507126021.28,7269,13.75,73816.5,0.59,-20.69,-20.93,0,*7E
1507126022.5,7270,13.75,73808.0,0.59,-20.69,-20.93,0,*76
1507126023.73,7271,13.75,73802.5,0.59,-21.23,-21.39,0,*79
1507126024.91,7272,13.75,73800.5,0.61,-21.09,-21.39,0,*79
1507126026.13,7273,13.75,73806.8,0.63,-20.89,-21.17,0,*7F
1507126027.34,7274,13.75,73804.5,0.61,-21.53,-21.73,0,*7E
1507126028.57,7275,13.75,73808.5,0.59,-21.27,-21.47,0,*70
1507126029.79,7276,13.75,73810.5,0.61,-20.93,-21.23,0,*74
1507126031.03,7277,13.75,73806.8,0.59,-20.83,-21.17,0,*78
1507126032.21,7278,13.75,73806.0,0.61,-20.73,-21.09,0,*7C
1507126033.45,7279,13.75,73804.5,0.61,-20.83,-21.23,0,*7A
1507126034.71,7280,13.75,73802.3,0.59,-20.79,-21.23,0,*72
1507126035.92,7281,13.75,73796.8,0.63,-20.63,-21.09,0,*79
1507126037.18,7282,13.75,73802.0,0.63,-20.79,-21.23,0,*79
1507126038.39,7283,13.75,73810.0,0.61,-20.93,-21.33,0,*7F
1507126039.65,7284,13.75,73806.5,0.63,-21.23,-21.67,0,*71
1507126040.86,7285,13.75,73810.5,0.61,-21.43,-21.97,0,*7B
1507126042.04,7286,13.69,73806.8,0.61,-21.43,-22.03,0,*76
1507126043.22,7287,13.75,73802.5,0.61,-21.43,-22.03,0,*77
1507126044.43,7288,13.75,73808.3,0.59,-21.43,-22.03,0,*73
1507126045.69,7289,13.75,73812.3,0.59,-21.27,-21.87,0,*7F
1507126046.9,7290,13.75,73804.0,0.61,-21.39,-21.87,0,*73
1507126048.14,7291,13.75,73814.8,0.59,-21.23,-21.77,0,*7D
1507126049.35,7292,13.75,73816.5,0.61,-20.93,-21.67,0,*7E
1507126050.56,7293,13.75,73820.5,0.61,-20.93,-21.57,0,*7C
1507126051.8,7294,13.75,73816.8,0.61,-21.03,-21.67,0,*70
1507126053.02,7295,13.75,73816.3,0.61,-20.59,-21.23,0,*7F
1507126054.22,7296,13.75,73816.0,0.61,-20.29,-21.03,0,*79
1507126055.44,7297,13.75,73820.8,0.63,-20.25,-20.89,0,*75
1507126056.65,7298,13.75,73824.5,0.63,-20.25,-20.93,0,*71
1507126057.85,7299,13.75,73820.0,0.65,-20.05,-20.83,0,*75
1507126059.06,7300,13.75,73820.5,0.67,-20.05,-20.73,0,*79
1507126060.24,7301,13.75,73822.0,0.69,-20.25,-21.13,0,*73
1507126061.48,7302,13.75,73820.8,0.67,-20.39,-21.27,0,*74
1507126062.72,7303,13.75,73818.3,0.67,-20.53,-21.47,0,*7F
1507126063.92,7304,13.75,73820.3,0.69,-20.53,-21.43,0,*72
1507126065.13,7305,13.75,73822.5,0.67,-21.13,-22.07,0,*7B
1507126066.37,7306,13.75,73826.0,0.67,-21.03,-22.07,0,*79
1507126067.6,7307,13.75,73822.3,0.67,-21.17,-22.21,0,*79
1507126068.84,7308,13.75,73820.3,0.67,-21.17,-22.21,0,*76
1507126070.07,7309,13.75,73818.3,0.67,-20.73,-21.67,0,*75
1507126071.28,7310,13.75,73818.0,0.65,-20.69,-21.67,0,*74
1507126072.48,7311,13.75,73822.3,0.65,-21.33,-22.41,0,*7C
1507126073.7,7312,13.75,73818.3,0.65,-21.39,-22.47,0,*73
1507126074.9,7313,13.75,73814.5,0.65,-21.33,-22.41,0,*7E
1507126076.11,7314,13.75,73810.8,0.65,-21.17,-22.31,0,*78
1507126077.35,7315,13.75,73810.5,0.63,-20.89,-22.17,0,*7D
1507126078.53,7316,13.75,73810.8,0.65,-20.69,-21.93,0,*79
1507126079.74,7317,13.69,73808.3,0.65,-21.17,-22.47,0,*7A
1507126080.95,7318,13.75,73804.3,0.63,-21.43,-22.83,0,*7A
1507126082.16,7319,13.75,73806.0,0.63,-22.03,-23.43,0,*71
1507126083.4,7320,13.75,73808.5,0.63,-21.67,-22.97,0,*72
1507126084.64,7321,13.75,73804.8,0.63,-21.53,-22.97,0,*74
1507126085.88,7322,13.75,73808.3,0.63,-21.23,-22.63,0,*7B
1507126087.09,7323,13.75,73814.5,0.63,-20.93,-22.37,0,*71
1507126088.3,7324,13.75,73816.5,0.61,-20.73,-22.17,0,*78
1507126089.48,7325,13.75,73808.8,0.61,-20.93,-22.37,0,*75
1507126090.72,7326,13.75,73810.3,0.61,-21.23,-22.77,0,*78
1507126091.93,7327,13.75,73814.0,0.61,-21.33,-22.83,0,*73
1507126093.11,7328,13.75,73812.8,0.61,-21.17,-22.83,0,*7A
1507126094.32,7329,13.75,73812.0,0.61,-21.33,-22.93,0,*7C
1507126095.56,7330,13.75,73816.3,0.59,-21.27,-22.97,0,*7E
1507126096.77,7331,13.75,73812.0,0.61,-20.49,-22.03,0,*70
1507126097.98,7332,13.75,73816.3,0.61,-20.73,-22.47,0,*7A
1507126099.19,7333,13.75,73822.5,0.61,-20.79,-22.67,0,*73
1507126100.45,7334,13.75,73812.0,0.59,-20.99,-22.73,0,*74
1507126101.63,7335,13.75,73812.5,0.61,-20.89,-22.67,0,*7A
1507126102.87,7336,13.75,73814.3,0.61,-21.03,-22.77,0,*7B
1507126104.11,7337,13.75,73814.8,0.59,-20.99,-22.87,0,*7C
1507126105.31,7338,13.75,73816.3,0.59,-20.93,-22.83,0,*7D
1507126106.55,7339,13.75,73816.8,0.59,-20.99,-22.87,0,*72